Location: ???? ????
(31.2831°N, 45.5190°E)
Time: 04:39:13
(UTC+00:00)

Cosmos 1461 - Pass Details

Date: 24 February 2021
Orbit: 505 x 659 km, 65.0° (Epoch: 14 April)

Event Time Altitude Azimuth Distance (km) Brightness Sun altitude
Rises 15:12:51 0° 174° (S) 2,900 6.5 -5.2°
Reaches altitude 10° 15:15:32 10° 159° (SSE) 2,019 5.6 -5.7°
Maximum altitude 15:19:01 22° 109° (ESE) 1,427 4.4 -6.5°
Drops below altitude 10° 15:22:35 10° 59° (ENE) 2,066 5.2 -7.2°
Enters shadow 15:24:08 - 50° (NE) 2,567 5.7 -7.5°
